Location: Newark
(44.6028°N, 124.0883°W)
Time: 22:58:15
(UTC+00:00)

Vanguard 1 Rocket - Pass Details

Date: 27 October 2019
Orbit: 651 x 4225 km, 34.3° (Epoch: 10 November)

Event Time Altitude Azimuth Distance (km) Brightness Sun altitude
Rises 21:12:27 0° 272° (W) 5,924 11.8 30.2°
Reaches altitude 10° 21:15:48 10° 268° (W) 5,301 11.7 30.0°
Maximum altitude 21:32:30 53° 198° (SSW) 4,243 12.2 28.8°
Drops below altitude 10° 21:56:58 10° 131° (SE) 7,395 12.2 26.7°
Sets 22:02:49 0° 127° (SE) 8,296 12.3 26.1°
